Weather in Sarapul

Russia / Udmurt Republic     56°27′41″N   53°48′13″E
temp.,
°C
wind,
m/s
gust,
m/s
humid.,
%
clouds,
%
prec.,
mm/h
press.,
hPa
HPBL,
m
19 september, sun
sun1901:00+2nw5118367 0.0 1018453
04:00+1nw5118640 0.0 1019469
07:00+1nw51188100 0.0 1020513
10:00+4nnw5665100 0.0 1021894
13:00+6nw565294 0.0 10211456
16:00+8nnw574986 0.0 10221512
19:00+4n376193 0.0 1023313
22:00+4nnw365892 0.0 1024371
20 september, mon
mon2001:00+2wnw236684 0.0 102543
04:000nw23845 0.0 102651
07:000nw238599 0.0 102785
10:00+5n235817 0.0 1028613
13:00+8n334842 0.0 10281241
16:00+9nne344637 0.0 10271336
19:00+5ne3870100 0.0 1028169
22:00+2ene3879100 0.0 1029199
21 september, tue
tue2101:00+1ene2485100 0.0 103070
04:000ene2289100 0.0 103034
07:00+1ene2786100 0.0 1029176
10:00+6e4661100 0.0 1028633
13:00+9ese4450100 0.0 1027985
16:00+10ese3450100 0.0 1025908
19:00+7e2264100 0.0 102527
22:00+5e246983 0.0 102476
22 september, wed
wed2201:00+4e247485 0.0 102468
04:00+3e357890 0.0 102388
07:00+3e377781 0.0 1023160
10:00+9e465451 0.0 1023491
13:00+10ese3655100 0.0 1023467
16:00+11se3754100 0.0 1022488
19:00+9ese3762100 0.0 1022171
22:00+8ese3763100 0.0 1022228
23 september, thu
thu2301:00+8ese2666100 0.0 1022199
04:00+7ese2578100 0.1 1022161
07:00+8ese3884100 0.0 1022294
10:00+10se5877100 0.0 1023421
13:00+13ese686365 0.0 1022616
16:00+14se685974 0.0 1021801
19:00+12se51170100 0.0 1021496
22:00+11se51273100 0.0 1021446